Regional Weather Roundup
Issued by NWS

Home | Current Version | Previous Version | Graphics & Text | Print | Product List | Glossary On
Versions: 1 2 3 4 5 6 7 8 9 10 11 12 13 14 15 16 17 18 19 20 21 22 23 24 25 26 27 28 29 30 31 32 33 34 35 36 37 38 39 40 41 42 43 44 45 46 47 48 49 50
000
ASUS43 KOAX 190410
RWRNE

WEATHER ROUNDUP FOR NEBRASKA
NATIONAL WEATHER SERVICE OMAHA NE
1100 PM CDT WED OCT 18 2017

NOTES: SATELLITE DATA IS BEING USED TO AUGMENT CLOUD COVER ABOVE
       12000 FEET.
       "FAIR" INDICATES FEW OR NO CLOUDS BELOW 12,000 FEET WITH NO
       SIGNIFICANT WEATHER AND/OR OBSTRUCTIONS TO VISIBILITY.


NEZ001>004-019>022-054>056-190500-
NEBRASKA PANHANDLE

CITY           SKY/WX    TMP DP  RH WIND       PRES   REMARKS
SCOTTSBLUFF    CLOUDY    47  31  53 E9        30.08S
ALLIANCE       CLOUDY    41  31  67 S8        30.08R
CHADRON        CLOUDY    60  27  28 S18G26    30.00F
GORDON         FAIR      49  32  51 CALM      30.05F
KIMBALL        CLOUDY    44  28  54 SE7       30.13S
SIDNEY         CLEAR     46  31  55 SE10      30.12S
$$

NEZ057>060-069>072-079>082-190500-
SOUTHWEST NEBRASKA

CITY           SKY/WX    TMP DP  RH WIND       PRES   REMARKS
NORTH PLATTE   CLOUDY    41  35  79 E3        30.10S
IMPERIAL       CLEAR     46  32  58 SE6       30.10F
LEXINGTON      CLEAR     43  37  80 W3        30.10F
MCCOOK         CLEAR     49  35  58 E5        30.10S
OGALLALA       CLEAR     47  35  61 CALM      30.10S
$$

NEZ005>010-023>029-035>040-094-190500-
NORTH CENTRAL NEBRASKA

CITY           SKY/WX    TMP DP  RH WIND       PRES   REMARKS
VALENTINE      CLOUDY    50  33  52 S8        30.06F
AINSWORTH      CLEAR     40  35  80 S6        30.08S
BROKEN BOW     CLOUDY    37  33  85 CALM      30.09S
O`NEILL        CLOUDY    46  37  72 S3        30.08S
ORD            CLEAR     40  34  79 CALM      30.08S
THEDFORD       CLEAR     46  34  64 SE5       30.10S
$$

NEZ041-046>049-061>064-073>077-083>087-190500-
SOUTH CENTRAL NEBRASKA

CITY           SKY/WX    TMP DP  RH WIND       PRES   REMARKS
GRAND ISLAND   CLEAR     48  40  73 N3        30.08S
AURORA         CLEAR     48  38  70 N3        30.07S
HASTINGS       CLEAR     49  39  68 N3        30.08S
HEBRON         CLEAR     56  43  60 CALM      30.05S
HOLDREGE       CLEAR     45  38  75 N3        30.09S
KEARNEY        CLEAR     49  37  63 NW7       30.09S
YORK           CLEAR     52  41  66 N7        30.07R
$$

NEZ011>018-030>034-042>045-190500-
NORTHEAST NEBRASKA

CITY           SKY/WX    TMP DP  RH WIND       PRES   REMARKS
NORFOLK        CLEAR     47  38  71 W3        30.06S
ALBION         CLEAR     44  38  80 NW5       30.08S
BLAIR          CLEAR     59  45  60 NE6       30.04S
COLUMBUS       CLEAR     54  39  57 N7        30.07
FREMONT        CLEAR     51  42  70 N5        30.05R
TEKAMAH        CLEAR     47  43  86 NW8       30.04S
WAYNE          CLEAR     43  39  86 CALM      30.06S
$$

NEZ050>053-065>068-078-088>093-190500-
SOUTHEAST NEBRASKA

CITY           SKY/WX    TMP DP  RH WIND       PRES   REMARKS
LINCOLN        CLEAR     53  44  71 NW3       30.06R
OMAHA EPPLEY   CLEAR     52  46  80 NW7       30.04R
BEATRICE       CLEAR     51  48  90 CALM      30.04R
FALLS CITY     CLEAR     54  49  83 CALM      30.03R
NEBRASKA CITY  CLEAR     59  49  70 SW5       30.03S
PLATTSMOUTH    CLEAR     60  50  69 NE3       30.04R
$$

NEZ044-045-051>053-067-190500-
OMAHA AREA

CITY           SKY/WX    TMP DP  RH WIND       PRES   REMARKS
OMAHA EPPLEY   CLEAR     52  46  80 NW7       30.04R
BLAIR          CLEAR     59  45  60 NE6       30.04S
FREMONT        CLEAR     51  42  70 N5        30.05R
MILLARD        CLEAR     56  48  74 CALM      30.03S
OFFUTT AFB     CLEAR     58  46  66 NE7       30.03R
PLATTSMOUTH    CLEAR     60  50  69 NE3       30.04R
WAHOO          FAIR      55  42  62 N5        30.04S
$$




USA.gov is the U.S. government's official web portal to all federal, state and local government web resources and services.